Hourly Weather Rudensk 2

Today, 22 April, Thursday

Time Temperature Precipitation Wind Pressure Humidity
00:00 +6°C° 0 mm 2 mps 741 mmHg 87%
01:00 +6°C° 0 mm 2 mps 741 mmHg 88%
02:00 +5°C° 0 mm 2 mps 741 mmHg 90%
03:00 +5°C° 0 mm 2 mps 741 mmHg 90%
04:00 +5°C° 0 mm 2 mps 741 mmHg 91%
05:00 +4°C° 0 mm 2 mps 741 mmHg 92%
06:00 +5°C° 0 mm 3 mps 741 mmHg 87%
07:00 +8°C° 0 mm 3 mps 741 mmHg 82%
08:00 +8°C° 0 mm 4 mps 741 mmHg 77%
09:00 +10°C° 0.3 mm 5 mps 741 mmHg 69%
10:00 +11°C° 0.3 mm 6 mps 741 mmHg 62%
11:00 +13°C° 0.3 mm 6 mps 741 mmHg 54%
12:00 +13°C° 0.4 mm 6 mps 741 mmHg 56%
13:00 +12°C° 0.4 mm 7 mps 741 mmHg 58%
14:00 +12°C° 0.4 mm 7 mps 741 mmHg 60%
15:00 +11°C° 0.2 mm 6 mps 741 mmHg 63%
16:00 +9°C° 0.2 mm 5 mps 742 mmHg 66%
17:00 +8°C° 0.2 mm 5 mps 742 mmHg 68%
18:00 +7°C° 0 mm 4 mps 742 mmHg 71%
19:00 +7°C° 0 mm 3 mps 742 mmHg 74%
20:00 +6°C° 0 mm 2 mps 742 mmHg 76%
21:00 +5°C° 0 mm 3 mps 742 mmHg 75%
22:00 +4°C° 0 mm 3 mps 743 mmHg 74%
23:00 +4°C° 0 mm 3 mps 743 mmHg 73%

Tomorrow, 23 April, Friday

Time Temperature Precipitation Wind Pressure Humidity
00:00 +3°C° 0 mm 3 mps 743 mmHg 75%
01:00 +3°C° 0 mm 3 mps 743 mmHg 76%
02:00 +3°C° 0 mm 3 mps 743 mmHg 77%
03:00 +2°C° 0 mm 3 mps 743 mmHg 81%
04:00 +1°C° 0 mm 3 mps 743 mmHg 84%
05:00 0°C° 0 mm 3 mps 743 mmHg 87%
06:00 0°C° 0 mm 4 mps 743 mmHg 81%
07:00 +1°C° 0 mm 5 mps 743 mmHg 75%
08:00 +2°C° 0 mm 6 mps 744 mmHg 69%
09:00 +2°C° 0 mm 6 mps 744 mmHg 66%
10:00 +3°C° 0 mm 6 mps 744 mmHg 64%
11:00 +3°C° 0 mm 6 mps 744 mmHg 61%
12:00 +4°C° 0.1 mm 6 mps 744 mmHg 60%
13:00 +5°C° 0.1 mm 5 mps 744 mmHg 58%
14:00 +6°C° 0.1 mm 5 mps 744 mmHg 56%
15:00 +6°C° 0.3 mm 5 mps 744 mmHg 57%
16:00 +5°C° 0.3 mm 5 mps 744 mmHg 59%
17:00 +5°C° 0.3 mm 5 mps 744 mmHg 60%
18:00 +4°C° 0.1 mm 4 mps 744 mmHg 65%
19:00 +3°C° 0.1 mm 3 mps 744 mmHg 69%
20:00 +3°C° 0.1 mm 2 mps 744 mmHg 74%
21:00 +2°C° 0 mm 2 mps 744 mmHg 76%
22:00 +1°C° 0 mm 2 mps 744 mmHg 78%
23:00 +1°C° 0 mm 2 mps 744 mmHg 80%

Day after tomorrow, 24 April, Saturday

Time Temperature Precipitation Wind Pressure Humidity
00:00 +1°C° 0 mm 2 mps 744 mmHg 81%
01:00 +1°C° 0 mm 2 mps 744 mmHg 83%
02:00 +1°C° 0 mm 2 mps 743 mmHg 84%
03:00 -1°C° 0.2 mm 3 mps 744 mmHg 85%
04:00 -1°C° 0.2 mm 3 mps 744 mmHg 87%
05:00 -1°C° 0.2 mm 3 mps 744 mmHg 88%
06:00 -1°C° 0 mm 4 mps 744 mmHg 83%
07:00 -1°C° 0 mm 5 mps 744 mmHg 78%
08:00 0°C° 0 mm 5 mps 745 mmHg 73%
09:00 +1°C° 0.1 mm 5 mps 745 mmHg 70%
10:00 +1°C° 0.1 mm 6 mps 745 mmHg 66%
11:00 +2°C° 0.1 mm 6 mps 745 mmHg 62%
12:00 +3°C° 0.2 mm 6 mps 745 mmHg 59%
13:00 +4°C° 0.2 mm 6 mps 745 mmHg 56%
14:00 +4°C° 0.2 mm 7 mps 745 mmHg 53%
15:00 +4°C° 0.2 mm 7 mps 745 mmHg 54%
16:00 +4°C° 0.2 mm 6 mps 745 mmHg 55%
17:00 +4°C° 0.2 mm 6 mps 745 mmHg 55%
18:00 +3°C° 0 mm 5 mps 745 mmHg 59%
19:00 +1°C° 0 mm 4 mps 745 mmHg 63%
20:00 +1°C° 0 mm 3 mps 745 mmHg 66%
21:00 -1°C° 0 mm 4 mps 745 mmHg 68%
22:00 -1°C° 0 mm 4 mps 745 mmHg 70%
23:00 -2°C° 0 mm 4 mps 745 mmHg 72%

25 April, Sunday

Time Temperature Precipitation Wind Pressure Humidity
00:00 -2°C° 0 mm 4 mps 745 mmHg 74%
01:00 -3°C° 0 mm 4 mps 745 mmHg 75%
02:00 -4°C° 0 mm 5 mps 745 mmHg 77%
03:00 -4°C° 0 mm 5 mps 745 mmHg 80%
04:00 -4°C° 0 mm 5 mps 745 mmHg 82%
05:00 -4°C° 0 mm 5 mps 745 mmHg 85%
06:00 -2°C° 0 mm 5 mps 745 mmHg 78%
07:00 -2°C° 0 mm 6 mps 745 mmHg 71%
08:00 -1°C° 0 mm 6 mps 745 mmHg 65%
09:00 +1°C° 0 mm 6 mps 745 mmHg 61%
10:00 +1°C° 0 mm 6 mps 745 mmHg 58%
11:00 +2°C° 0 mm 6 mps 746 mmHg 54%
12:00 +3°C° 0 mm 6 mps 745 mmHg 50%
13:00 +4°C° 0 mm 6 mps 745 mmHg 46%
14:00 +5°C° 0 mm 6 mps 745 mmHg 41%
15:00 +4°C° 0.1 mm 6 mps 745 mmHg 46%
16:00 +4°C° 0.1 mm 6 mps 745 mmHg 50%
17:00 +4°C° 0.1 mm 6 mps 745 mmHg 54%
18:00 +2°C° 0.2 mm 5 mps 745 mmHg 63%
19:00 +1°C° 0.2 mm 4 mps 745 mmHg 72%
20:00 0°C° 0.2 mm 3 mps 745 mmHg 81%
21:00 0°C° 0 mm 3 mps 745 mmHg 83%
22:00 -1°C° 0 mm 3 mps 745 mmHg 86%
23:00 -1°C° 0 mm 3 mps 745 mmHg 89%

26 April, Monday

Time Temperature Precipitation Wind Pressure Humidity
00:00 -2°C° 0 mm 3 mps 745 mmHg 90%
01:00 -2°C° 0 mm 3 mps 745 mmHg 91%
02:00 -2°C° 0 mm 3 mps 745 mmHg 92%
03:00 -4°C° 0 mm 3 mps 745 mmHg 92%
04:00 -4°C° 0 mm 3 mps 745 mmHg 93%
05:00 -4°C° 0 mm 3 mps 745 mmHg 93%
06:00 -2°C° 0 mm 3 mps 745 mmHg 85%
07:00 -2°C° 0 mm 4 mps 745 mmHg 77%
08:00 0°C° 0 mm 5 mps 745 mmHg 69%
09:00 0°C° 0.1 mm 5 mps 745 mmHg 66%
10:00 +1°C° 0.1 mm 5 mps 745 mmHg 62%
11:00 +2°C° 0.1 mm 5 mps 745 mmHg 58%
12:00 +2°C° 0.2 mm 5 mps 745 mmHg 55%
13:00 +3°C° 0.2 mm 5 mps 745 mmHg 52%
14:00 +5°C° 0.2 mm 5 mps 745 mmHg 50%
15:00 +5°C° 0.3 mm 5 mps 745 mmHg 53%
16:00 +5°C° 0.3 mm 5 mps 745 mmHg 57%
17:00 +4°C° 0.3 mm 4 mps 745 mmHg 61%
18:00 +3°C° 0.1 mm 4 mps 745 mmHg 68%
19:00 +2°C° 0.1 mm 3 mps 745 mmHg 75%
20:00 +1°C° 0.1 mm 3 mps 745 mmHg 82%
21:00 0°C° 0 mm 3 mps 745 mmHg 85%
22:00 -1°C° 0 mm 3 mps 745 mmHg 89%
23:00 -1°C° 0 mm 2 mps 745 mmHg 93%

27 April, Tuesday

Time Temperature Precipitation Wind Pressure Humidity
00:00 -2°C° 0 mm 2 mps 745 mmHg 93%
01:00 -2°C° 0 mm 2 mps 745 mmHg 93%
02:00 -2°C° 0 mm 2 mps 745 mmHg 93%
03:00 -2°C° 0 mm 2 mps 745 mmHg 93%
04:00 -2°C° 0 mm 2 mps 745 mmHg 94%
05:00 -2°C° 0 mm 2 mps 745 mmHg 94%
06:00 -1°C° 0 mm 3 mps 745 mmHg 87%
07:00 +1°C° 0 mm 3 mps 745 mmHg 81%
08:00 +3°C° 0 mm 3 mps 745 mmHg 74%
09:00 +4°C° 0 mm 3 mps 745 mmHg 67%
10:00 +5°C° 0 mm 3 mps 745 mmHg 60%
11:00 +7°C° 0 mm 3 mps 745 mmHg 53%
12:00 +8°C° 0 mm 3 mps 745 mmHg 51%
13:00 +8°C° 0 mm 3 mps 744 mmHg 50%
14:00 +9°C° 0 mm 3 mps 744 mmHg 48%
15:00 +9°C° 0 mm 3 mps 744 mmHg 50%
16:00 +9°C° 0 mm 2 mps 743 mmHg 51%
17:00 +9°C° 0 mm 2 mps 743 mmHg 52%
18:00 +8°C° 0 mm 2 mps 743 mmHg 58%
19:00 +6°C° 0 mm 2 mps 743 mmHg 63%
20:00 +5°C° 0 mm 2 mps 743 mmHg 68%
21:00 +5°C° 0 mm 2 mps 742 mmHg 70%
22:00 +4°C° 0 mm 2 mps 742 mmHg 72%
23:00 +3°C° 0 mm 2 mps 742 mmHg 74%
Show more